Content
SEND FEEDBACK

Daily
Averages
Monthly
Summary
Canada

MONTREAL TRUDEAU AIRPORT, QUEBEC


Home > North America > Canada > Quebec
Elevation: 118 feet     Latitude: 45 28N     Longitude: 73 45W

WEATHER
 
SELECT A DAY
Number of Records: 198,145;   Date Range: 1/1/95 - 7/28/14
 
SHARE

PRINT THIS DATA

[ ← Previous Day ]
WEATHER ALMANAC - OCTOBER 8, 2013
[ Next Day → ]
[ °C ]   °F
We're sorry. There is no daily almanac available for Montreal Trudeau Airport, Quebec on October 8, 2013.
WEATHER BY HOUR - OCTOBER 8, 2013
[ °C ]   °F
Local TimeTemperatureDewpointHumidityBarometerVisibilityWind DirectionWind SpeedGust SpeedPrecipitationEventsConditions
1:00 AM50.0 °F41.0 °F71 %29.88 in15.0 miWest (260°)21.9 mph34.5 mphPartly Cloudy
2:00 AM48.0 °F38.0 °F58 %29.95 in15.0 miWest (270°)21.9 mphScattered Clouds
2:00 AM48.2 °F37.4 °F66 %29.95 in15.0 miWest (260°)21.9 mph33.4 mphPartly Cloudy
3:00 AM48.2 °F39.2 °F71 %29.98 in15.0 miWest (260°)18.4 mph25.3 mphPartly Cloudy
4:00 AM46.4 °F39.2 °F76 %30.02 in15.0 miWSW (250°)16.1 mph21.9 mphScattered Clouds
5:00 AM46.4 °F39.2 °F76 %30.06 in15.0 miWSW (240°)17.3 mphScattered Clouds
6:00 AM44.6 °F39.2 °F81 %30.10 in15.0 miWSW (250°)15.0 mphScattered Clouds
7:00 AM44.6 °F39.2 °F81 %30.14 in15.0 miWSW (250°)9.2 mphPartly Cloudy
8:00 AM47.0 °F39.0 °F66 %30.17 in15.0 miWest (270°)12.7 mphScattered Clouds
8:00 AM46.4 °F39.2 °F76 %30.17 in15.0 miWest (270°)12.7 mphPartly Cloudy
9:00 AM48.2 °F39.2 °F71 %30.22 in15.0 miWest (270°)11.5 mph19.6 mphPartly Cloudy
10:00 AM50.0 °F37.4 °F62 %30.24 in30.0 miWest (270°)12.7 mphPartly Cloudy
11:00 AM51.8 °F39.2 °F62 %30.26 in30.0 miWest (260°)11.5 mph24.2 mphScattered Clouds
12:00 PM53.6 °F39.2 °F58 %30.27 in30.0 miSW (230°)13.8 mphPartly Cloudy
1:00 PM55.4 °F37.4 °F51 %30.28 in30.0 miWest (260°)12.7 mph19.6 mphScattered Clouds
2:00 PM56.0 °F39.0 °F41 %30.27 in28.0 miWest (270°)12.7 mphScattered Clouds
2:00 PM55.4 °F39.2 °F54 %30.27 in30.0 miWest (260°)13.8 mphPartly Cloudy
3:00 PM57.2 °F37.4 °F48 %30.28 in30.0 miWest (260°)11.5 mphPartly Cloudy
4:00 PM57.2 °F37.4 °F48 %30.29 in30.0 miWest (270°)12.7 mphPartly Cloudy
5:00 PM57.2 °F39.2 °F51 %30.30 in30.0 miWest (260°)8.1 mphPartly Cloudy
6:00 PM55.4 °F39.2 °F54 %30.32 in30.0 miWSW (240°)6.9 mphPartly Cloudy
7:00 PM51.8 °F39.2 °F62 %30.35 in15.0 miWSW (250°)5.8 mphClear
8:00 PM49.0 °F39.0 °F59 %30.36 in15.0 miWSW (240°)5.8 mph
8:00 PM50.0 °F39.2 °F66 %30.35 in15.0 miWSW (250°)5.8 mphClear
9:00 PM51.8 °F39.2 °F62 %30.36 in15.0 miWest (260°)3.5 mphClear
10:00 PM46.4 °F39.2 °F76 %30.37 in15.0 miCalmClear
11:00 PM46.4 °F41.0 °F81 %30.37 in15.0 miNorth (360°)2.3 mphClear
Hourly data recorded from CYUL, located miles away from Montreal Trudeau Airport, Quebec







STORIES FROM OUR PARTNERS